Regional Weather Roundup
Issued by NWS New Orleans/Baton Rouge, LA

Home | Current Version | Previous Version | Graphics & Text | Print | Product List | Glossary On
Versions: 1 2 3 4 5 6 7 8 9 10 11 12 13 14 15 16 17 18 19 20 21 22 23 24 25 26 27 28 29 30 31 32 33 34 35 36 37 38 39 40 41 42 43 44 45 46 47 48 49 50
552
ASUS44 KLIX 280605
RWRLIX
NEW ORLEANS REGIONAL WEATHER ROUNDUP
NATIONAL WEATHER SERVICE NEW ORLEANS LA
1200 AM CST FRI NOV 28 2014

NOTE: "FAIR" INDICATES FEW OR NO CLOUDS BELOW 12,000 FEET WITH NO
      SIGNIFICANT WEATHER AND/OR OBSTRUCTIONS TO VISIBILITY.
      SKY/WX - SKY CONDITION AND SIGNIFICANT WEATHER.
      TMP - AIR TEMPERATURE.     DP    - DEWPOINT TEMPERATURE.
      RH  - RELATIVE HUMIDITY.   PRES  - PRESSURE.
      HI  - HEAT INDEX.          WCI   - WIND CHILL INDEX.

*  THESE STATIONS ARE NOT NWS OR FAA STATIONS AND ARE NOT UNDER
   NWS QUALITY CONTROL.

LAZ038-040-048-061>063-065>067-069-280700-
SOUTHEAST LOUISIANA

CITY           SKY/WX    TMP DP  RH WIND       PRES   REMARKS
N.O. AUDUBON     N/A     47  36  63 MISG        N/A
6HR MIN TEMP:  47; 6HR MAX TEMP:  55;

N.O. INTL ARPT CLEAR     49  35  58 NE9       30.43F
6HR MIN TEMP:  49; 6HR MAX TEMP:  54;

N.O. LAKEFRONT CLEAR     51  36  56 NE17      30.44F
6HR MIN TEMP:  51; 6HR MAX TEMP:  57;

N.O. DOWNTOWN*   N/A     48  30  49 N7        30.44S
6HR MIN TEMP:  48; 6HR MAX TEMP:  57;

SLIDELL        CLEAR     36  32  85 CALM      30.44S
6HR MIN TEMP:  36; 6HR MAX TEMP:  47;

BATON ROUGE    CLEAR     39  33  79 NE3       30.44F
6HR MIN TEMP:  39; 6HR MAX TEMP:  52;

BOOTHVILLE     CLEAR     53  40  61 NE8       30.42F
6HR MIN TEMP:  53; 6HR MAX TEMP:  56;

BELLE CHASSE   CLEAR     45  34  65 NE5       30.43F
6HR MIN TEMP:  40; 6HR MAX TEMP:  54;

BOGALUSA*        N/A     35  31  87 CALM      30.46F
6HR MIN TEMP:  34; 6HR MAX TEMP:  44;

NEW ROADS*       N/A     39  33  77 CALM      30.44F
6HR MIN TEMP:  39; 6HR MAX TEMP:  49;

GONZALES*        N/A     40  35  80 CALM      30.44S
6HR MIN TEMP:  39; 6HR MAX TEMP:  53;

HAMMOND*       CLEAR     41  32  70 NE5       30.45F
HOUMA*         CLEAR     38  35  89 E3        30.42F
6HR MIN TEMP:  38; 6HR MAX TEMP:  51;

PORT FOURCHON* CLEAR     54  39  58 NE13      30.44F

$$

MSZ070-080>082-280700-
SOUTHERN MISSISSIPPI

CITY           SKY/WX    TMP DP  RH WIND       PRES   REMARKS
MCCOMB         CLEAR     39  30  70 N5        30.44F
6HR MIN TEMP:  39; 6HR MAX TEMP:  49;

GULFPORT       CLEAR     41  32  70 N5        30.43F
6HR MIN TEMP:  40; 6HR MAX TEMP:  51;

BILOXI         CLEAR     42  33  71 VRB5      30.43F
6HR MIN TEMP:  41; 6HR MAX TEMP:  51;

PASCAGOULA     CLEAR     34  31  88 N7        30.43F WCI  28
6HR MIN TEMP:  32; 6HR MAX TEMP:  48;


$$

COASTAL OBSERVATIONS
LAKE AND NEARSHORE STATIONS

STATION/POSITION TIME  TEMP    WIND        PRES    WAVE
                       AIR SEA DIR/SP/G            HT/PER
                 (UTC) (F)     (DEG/KT/KT) (MB)    (FT/S)
PASCAGOULA       0600   42      10/  7/  9 1029.9
WAVELAND YACHT   0600   46      30/  8/ 10 1029.8
GRAND ISLE       0600   53 59   60/ 10/ 14 1030.1
SOUTHWEST PASS   0600   54                 1029.9
NEW CANAL        0600   51 53   50/ 14/ 18 1030.7
SHELL BEACH      0600   51 52   40/ 16/ 18 1030.1

OFFSHORE STATIONS

STATION/POSITION TIME  TEMP    WIND        PRES    WAVE
                       AIR SEA DIR/SP/G            HT/PER
                 (UTC) (F)     (DEG/KT/KT) (MB)    (FT/S)
64 S DAUPHIN ISL 0511   56 71   40/ 17/ 21 1029.9    5/ 6

$$




USA.gov is the U.S. government's official web portal to all federal, state and local government web resources and services.